EW9523 Weather Reports


Display with metric or nautical units.
time (UTC)temp
F
wind
direction
speed
MPH
gust
MPH
rain 1hr
in
rain 24hr
in
rain mn
in
humidity
%
barometer
mb
20260906211516 81 225 3.0 11.0 0.00 0.00 0.00 35 1012.1
20260906210518 80 247 5.0 12.0 0.00 0.00 0.00 36 1012.2
20260906205515 80 313 3.0 10.0 0.00 0.00 0.00 37 1012.3
20260906204513 80 249 4.0 10.0 0.00 0.00 0.00 37 1012.3
20260906203512 79 277 3.0 12.0 0.00 0.00 0.00 38 1012.5
20260906202949 79 219 3.0 12.0 0.00 0.00 0.00 39 1012.5
20260906201946 78 240 2.0 5.0 0.00 0.00 0.00 41 1012.5
20260906200500 78 169 3.0 7.0 0.00 0.00 0.00 42 1012.3
20260906195449 77 0 3.0 9.0 0.00 0.00 0.00 43 1012.5
20260906194438 77 87 3.0 9.0 0.00 0.00 0.00 43 1012.6
20260906193440 77 300 3.0 10.0 0.00 0.00 0.00 43 1012.8
20260906192435 76 337 2.0 7.0 0.00 0.00 0.00 43 1012.9
20260906191435 76 336 2.0 6.0 0.00 0.00 0.00 43 1013.1
20260906190433 75 9 2.0 7.0 0.00 0.00 0.00 43 1013.2
20260906185433 74 325 2.0 7.0 0.00 0.00 0.00 46 1013.3
20260906184428 73 275 3.0 9.0 0.00 0.00 0.00 49 1013.3
20260906183429 73 294 3.0 7.0 0.00 0.00 0.00 51 1013.3
20260906182427 72 274 2.0 4.0 0.00 0.00 0.00 51 1013.5
20260906181426 71 223 1.0 5.0 0.00 0.00 0.00 52 1013.5
20260906180427 70 186 1.0 5.0 0.00 0.00 0.00 55 1013.6
20260906175429 69 281 1.0 5.0 0.00 0.00 0.00 55 1013.7
20260906174427 68 224 1.0 4.0 0.00 0.00 0.00 57 1013.7
20260906173907 67 151 0.0 2.0 0.00 0.00 0.00 60 1013.7
20260906172410 66 186 0.0 3.0 0.00 0.00 0.00 62 1013.7
20260906171411 64 109 1.0 4.0 0.00 0.00 0.00 63 1013.7
20260906170350 63 9 2.0 5.0 0.00 0.00 0.00 65 1013.7
20260906165349 62 306 2.0 5.0 0.00 0.00 0.00 66 1013.9
20260906164347 62 57 1.0 4.0 0.00 0.00 0.00 68 1013.8
20260906163741 60 313 2.0 6.0 0.00 0.00 0.00 72 1014.0
20260906163405 61 286 2.0 4.0 0.00 0.00 0.00 70 1013.8
20260906161332 59 319 3.0 6.0 0.00 0.00 0.00 73 1014.0
20260906160810 58 299 1.0 3.0 0.00 0.00 0.00 76 1013.9
20260906155805 56 196 0.0 2.0 0.00 0.00 0.00 79 1013.9
20260906154321 54 338 1.0 6.0 0.00 0.00 0.00 82 1013.9
20260906153319 53 327 0.0 3.0 0.00 0.00 0.00 84 1013.9
20260906152318 51 203 1.0 4.0 0.00 0.00 0.00 85 1013.9
20260906151319 50 317 1.0 3.0 0.00 0.00 0.00 87 1013.8
20260906150312 49 330 0.0 0.0 0.00 0.00 0.00 88 1013.8
20260906145310 48 61 0.0 0.0 0.00 0.00 0.00 89 1013.7
20260906144246 48 61 0.0 0.0 0.00 0.00 0.00 88 1013.7
20260906143246 48 74 0.0 0.0 0.00 0.00 0.00 89 1013.6
20260906142242 48 74 0.0 0.0 0.00 0.00 0.00 89 1013.4
20260906141211 48 74 0.0 0.0 0.00 0.00 0.00 89 1013.3
20260906140156 48 74 0.0 0.0 0.00 0.00 0.00 89 1013.4
20260906135147 47 74 0.0 0.0 0.00 0.00 0.00 89 1013.2
20260906134126 48 74 0.0 0.0 0.00 0.00 0.00 89 1013.1
20260906133124 48 74 0.0 0.0 0.00 0.00 0.00 89 1013.0
20260906132112 48 74 0.0 0.0 0.00 0.00 0.00 89 1013.0
20260906131102 48 74 0.0 0.0 0.00 0.00 0.00 88 1012.8
20260906130038 48 74 0.0 0.0 0.00 0.00 0.00 88 1012.8
20260906125014 49 74 0.0 0.0 0.00 0.00 0.00 88 1012.8
20260906123951 49 74 0.0 0.0 0.00 0.00 0.00 88 1012.7
20260906122934 48 74 0.0 0.0 0.00 0.00 0.00 89 1012.7
20260906121933 49 74 0.0 0.0 0.00 0.00 0.00 88 1012.6
20260906120927 49 74 0.0 2.0 0.00 0.00 0.00 88 1012.6
20260906115917 49 74 0.0 0.0 0.00 0.00 0.00 87 1012.6
20260906114912 49 74 0.0 0.0 0.00 0.00 0.00 87 1012.7
20260906113910 49 84 0.0 2.0 0.00 0.00 0.00 87 1012.7
20260906112848 50 54 2.0 3.0 0.00 0.00 0.00 85 1012.7
20260906111849 51 42 2.0 4.0 0.00 0.00 0.00 85 1012.7
20260906110846 51 42 2.0 4.0 0.00 0.00 0.00 86 1012.7
20260906105846 51 42 2.0 3.0 0.00 0.00 0.00 85 1012.6
20260906104842 51 44 2.0 3.0 0.00 0.00 0.00 84 1012.6
20260906103843 51 36 2.0 4.0 0.00 0.00 0.00 84 1012.5
20260906102835 51 40 2.0 4.0 0.00 0.00 0.00 83 1012.6
20260906101834 52 49 0.0 0.0 0.00 0.00 0.00 82 1012.6
20260906100818 52 49 1.0 4.0 0.00 0.00 0.00 84 1012.7
20260906095809 52 49 3.0 3.0 0.00 0.00 0.00 81 1012.6
20260906094806 52 44 2.0 4.0 0.00 0.00 0.00 81 1012.5
20260906093806 53 54 0.0 3.0 0.00 0.00 0.00 81 1012.6
20260906092805 53 64 0.0 2.0 0.00 0.00 0.00 80 1012.7
20260906091804 53 35 1.0 3.0 0.00 0.00 0.00 79 1012.7
20260906090746 54 43 2.0 4.0 0.00 0.00 0.00 78 1012.8
20260906090226 54 66 2.0 3.0 0.00 0.00 0.00 78 1012.9
20260906084742 54 78 1.0 3.0 0.00 0.00 0.00 78 1012.8
20260906083740 55 69 1.0 4.0 0.00 0.00 0.00 77 1012.9
20260906083713 55 112 0.0 2.0 0.00 0.00 0.00 77 1012.9
20260906081730 56 112 1.0 2.0 0.00 0.00 0.00 75 1012.8
20260906080720 56 94 0.0 0.0 0.00 0.00 0.00 74 1012.7
20260906075721 56 41 0.0 0.0 0.00 0.00 0.00 74 1012.6
20260906074716 58 61 0.0 0.0 0.00 0.00 0.00 71 1012.7
20260906073715 58 26 0.0 0.0 0.00 0.00 0.00 71 1012.7
20260906072710 59 26 0.0 0.0 0.00 0.00 0.00 70 1012.7
20260906072624 59 22 0.0 1.0 0.00 0.00 0.00 69 1012.7
20260906070656 59 19 1.0 2.0 0.00 0.00 0.00 69 1012.7
20260906065653 60 53 2.0 3.0 0.00 0.00 0.00 68 1012.8
20260906064651 60 46 1.0 3.0 0.00 0.00 0.00 67 1012.8
20260906063645 60 21 1.0 3.0 0.00 0.00 0.00 67 1012.8
20260906062639 60 5 1.0 2.0 0.00 0.00 0.00 67 1012.8
20260906061639 61 355 2.0 3.0 0.00 0.00 0.00 66 1012.7
20260906060627 61 324 2.0 4.0 0.00 0.00 0.00 65 1012.7
20260906060106 61 5 1.0 3.0 0.00 0.00 0.00 64 1012.7
20260906054619 61 26 1.0 3.0 0.00 0.00 0.00 63 1012.8
20260906053615 62 51 0.0 2.0 0.00 0.00 0.00 62 1012.7
20260906052615 62 355 1.0 4.0 0.00 0.00 0.00 61 1012.9
20260906052050 63 48 0.0 2.0 0.00 0.00 0.00 60 1012.9
20260906050611 63 5 1.0 4.0 0.00 0.00 0.00 59 1012.9
20260906050050 64 22 1.0 4.0 0.00 0.00 0.00 58 1012.9
20260906044606 64 0 1.0 4.0 0.00 0.00 0.00 58 1012.9
20260906043607 64 22 2.0 5.0 0.00 0.00 0.00 56 1013.0
20260906042606 65 16 2.0 5.0 0.00 0.00 0.00 56 1012.9
20260906041557 65 329 1.0 3.0 0.00 0.00 0.00 56 1013.0
20260906040544 65 5 2.0 5.0 0.00 0.00 0.00 57 1012.8
20260906040008 65 46 2.0 5.0 0.00 0.00 0.00 57 1012.7
20260906035449 66 11 1.0 3.0 0.00 0.00 0.00 57 1012.8
20260906033529 66 16 0.0 4.0 0.00 0.00 0.00 57 1012.7
20260906032522 67 15 0.0 3.0 0.00 0.00 0.00 56 1012.6
20260906031945 67 316 1.0 4.0 0.00 0.00 0.00 57 1012.5
20260906030459 68 346 2.0 4.0 0.00 0.00 0.00 54 1012.5
20260906025459 69 35 1.0 6.0 0.00 0.00 0.00 51 1012.3
20260906024938 71 190 1.0 3.0 0.00 0.00 0.00 50 1012.4
20260906023448 72 21 2.0 4.0 0.00 0.00 0.00 47 1012.3
20260906022923 73 119 0.0 2.0 0.00 0.00 0.00 44 1012.3
20260906021449 74 265 1.0 4.0 0.00 0.00 0.00 44 1012.3
20260906020448 75 194 2.0 9.0 0.00 0.00 0.00 42 1012.3
20260906015447 76 218 2.0 6.0 0.00 0.00 0.00 42 1012.3
20260906014923 76 253 2.0 7.0 0.00 0.00 0.00 42 1012.3
20260906013920 76 288 4.0 11.0 0.00 0.00 0.00 42 1012.2
20260906012436 76 214 3.0 8.0 0.00 0.00 0.00 41 1012.1
20260906011434 77 249 3.0 11.0 0.00 0.00 0.00 41 1012.1
20260906010432 77 248 3.0 8.0 0.00 0.00 0.00 40 1012.1
20260906005430 78 214 3.0 9.0 0.00 0.00 0.00 40 1012.1
20260906004907 78 227 3.0 10.0 0.00 0.00 0.00 40 1012.2
20260906003428 78 213 4.0 9.0 0.00 0.00 0.00 40 1012.3
20260906002429 78 202 3.0 9.0 0.00 0.00 0.00 41 1012.3
20260906001912 78 194 4.0 10.0 0.00 0.00 0.00 42 1012.3
20260906000425 79 195 5.0 14.0 0.00 0.00 0.00 42 1012.2
20260905235424 79 206 4.0 13.0 0.00 0.00 0.00 43 1012.2
20260905234423 79 273 6.0 14.0 0.00 0.00 0.00 42 1012.2
20260905233420 79 171 4.0 13.0 0.00 0.00 0.00 42 1012.1
20260905232420 80 254 5.0 13.0 0.00 0.00 0.00 43 1012.1
20260905231418 80 148 5.0 12.0 0.00 0.00 0.00 43 1012.1
20260905230416 80 213 5.0 13.0 0.00 0.00 0.00 44 1012.1
20260905225416 80 187 5.0 12.0 0.00 0.00 0.00 43 1012.1
20260905224414 80 194 4.0 11.0 0.00 0.00 0.00 42 1012.1
20260905223413 81 223 5.0 15.0 0.00 0.00 0.00 41 1012.3
20260905222410 81 290 3.0 10.0 0.00 0.00 0.00 41 1012.2
20260905221845 80 169 3.0 9.0 0.00 0.00 0.00 41 1012.3
20260905220410 79 218 3.0 7.0 0.00 0.00 0.00 42 1012.3
20260905215410 79 297 5.0 11.0 0.00 0.00 0.00 40 1012.5
20260905214410 80 227 4.0 11.0 0.00 0.00 0.00 40 1012.5
20260905213410 80 63 3.0 7.0 0.00 0.00 0.00 38 1012.5